Home > Weather > Pomona > Past weeks

Flag for USA Weather for the Past 2 Weeks in Pomona, California, USA

Now
63 °F

Passing clouds.


Feels Like: 63 °F
Forecast: 53 / 80 °F
Wind: 12 mph from West

Location: Chino Airport

Current Time: May 1, 2016 at 8:45:22 PM

Latest Report: May 1, 2016 at 7:53 PM


Visibility: 10 mi

Pressure: 29.93 "Hg

Humidity: 65%

Dew Point: 51 °F

Location of PomonaLocation

Historic Weather in Pomona — Graph

°F

Pomona Temperature Yesterday

Maximum temperature yesterday: 71 °F (at 2:53 PM)
Minimum temperature yesterday: 55 °F (at 12:53 AM)
Average temperature yesterday: 62 °F

High & Low Weather Summary for the Past Weeks

 TemperatureHumidityPressure
High94 °F (Apr 19, 1:53 PM)93% (Apr 26, 1:53 AM)30.08 "Hg (Apr 26, 1:53 AM)
Low46 °F (Apr 26, 4:53 AM)4% (Apr 17, 1:53 PM)29.74 "Hg (Apr 27, 11:53 PM)
Average65 °F48%29.92 "Hg
* Reported Apr 16 6:53 PM — May 1 6:53 PM, Pomona, Weather by CustomWeather, © 2016

Note: Actual official high and low records may vary slightly from our data, if they occured in-between our weather recording intervals... More about our weather records

Advertising

Pomona Weather History for the Previous 24 Hours

Scroll right to see more
 ConditionsComfort  
Time TempWeatherWind HumidityBarometerVisibility
6:53 PM
Sun, May 1
66 °FPassing clouds.15 mph59%29.91 "Hg10 mi
5:53 PM73 °FPassing clouds.16 mph46%29.89 "Hg10 mi
4:53 PM76 °FScattered clouds.12 mph42%29.88 "Hg10 mi
3:53 PM77 °FSunny.12 mph39%29.88 "Hg10 mi
2:53 PM78 °FScattered clouds.13 mph39%29.89 "Hg10 mi
1:53 PM77 °FPassing clouds.12 mph39%29.90 "Hg10 mi
12:53 PM76 °FScattered clouds.5 mph39%29.90 "Hg10 mi
11:53 AM73 °FPassing clouds.5 mph40%29.91 "Hg10 mi
10:53 AM69 °FPassing clouds.3 mph45%29.91 "Hg10 mi
9:53 AM65 °FPassing clouds.No wind52%29.92 "Hg10 mi
8:53 AM62 °FScattered clouds.No wind60%29.92 "Hg10 mi
7:53 AM59 °FPassing clouds.No wind69%29.91 "Hg10 mi
6:53 AM53 °FPassing clouds.No wind80%29.90 "Hg10 mi
5:53 AM51 °FClear.No wind80%29.87 "Hg6 mi
4:53 AM50 °FClear.No wind83%29.86 "Hg7 mi
3:53 AM54 °FPassing clouds.No wind74%29.85 "Hg8 mi
2:53 AM53 °FPassing clouds.No wind77%29.85 "Hg8 mi
1:53 AM54 °FClear.No wind72%29.85 "Hg9 mi
12:53 AM56 °FClear.No wind70%29.85 "Hg9 mi
11:53 PM
Sat, Apr 30
57 °FPassing clouds.3 mph69%29.85 "Hg9 mi
10:53 PM57 °FClear.7 mph69%29.84 "Hg9 mi
9:53 PM60 °FOvercast.7 mph60%29.84 "Hg10 mi
8:53 PM62 °FOvercast.12 mph54%29.82 "Hg10 mi
Weather by CustomWeather, © 2016

See weather overviewHow to use our weather pages